Voltar ao catálogo

QIANFAN-134

AtivoComunicaçõesPO
NORAD 69080·PAYLOAD·🇨🇳 China

Lançado May 12, 2026 de Taiyuan Satellite Launch Center

Loading…

Próximas Passagens (próximas 24 horas)

TLE

AtualizadoSource: Space-Track

Época: Sep 14, 2026, 22:40 UTC

1 69080U 26104H   26257.94472520  .00000122  00000-0  16998-3 0  9992
2 69080  88.9915 332.3382 0002130 113.1121 247.0255 13.51028553 17269

Acompanhe QIANFAN-134 em tempo real com AllMySat

Download on the App Store